IZ2OSD Weather Reports


time (UTC)temp
F
wind
direction
speed
knots
gust
knots
rain 1hr
in
rain 24hr
in
rain mn
in
humidity
%
barometer
mb
20260508012417 53 157 3.5 8.7 0.00 0.01 0.00 84 1013.2
20260508011413 53 315 0.9 1.7 0.00 0.01 0.00 85 1012.5
20260508010430 53 315 0.9 1.7 0.00 0.01 0.00 85 1012.8
20260508005406 53 292 0.9 1.7 0.00 0.01 0.00 85 1012.9
20260508004403 54 0.0 0.0 0.00 0.02 0.00 85 1012.8
20260508003400 53 0.0 0.0 0.00 0.02 0.00 85 1013.0
20260508002356 53 0.0 0.0 0.00 0.02 0.00 85 1012.8
20260508001412 54 0.0 0.0 0.00 0.02 0.00 84 1013.2
20260508000350 54 0.0 0.0 0.00 0.02 0.00 84 1012.9
20260507235345 55 0.0 0.0 0.00 0.02 0.00 84 1013.0
20260507234343 55 0.0 0.0 0.00 0.02 0.00 84 1012.9
20260507233338 55 0.0 0.0 0.00 0.02 0.00 83 1012.9
20260507232334 55 0.0 0.0 0.00 0.02 0.00 82 1013.3
20260507231333 55 0.0 0.0 0.00 0.02 0.00 81 1012.9
20260507230326 55 292 0.0 0.9 0.00 0.02 0.00 81 1012.9
20260507225323 56 0.0 0.0 0.00 0.02 0.00 82 1012.9
20260507224319 56 292 0.0 0.9 0.00 0.02 0.00 81 1013.2
20260507223316 56 292 0.0 1.7 0.00 0.02 0.00 81 1013.2
20260507222312 56 292 0.0 1.7 0.00 0.02 0.00 81 1012.9
20260507221308 56 292 0.9 1.7 0.00 0.02 0.00 81 1012.9
20260507220304 56 0.0 0.0 0.00 0.02 0.00 82 1013.0
20260507215256 56 0.0 0.0 0.00 0.02 0.02 83 1013.2
20260507214332 57 0.0 0.0 0.00 0.02 0.02 81 1012.7
20260507213249 58 0.0 0.0 0.00 0.02 0.02 79 1012.6
20260507212247 59 0.0 0.0 0.00 0.02 0.02 78 1012.6
20260507211242 59 0.0 0.0 0.00 0.02 0.02 77 1012.7
20260507210238 59 0.0 0.0 0.00 0.02 0.02 76 1012.8
20260507205315 60 0.0 0.0 0.00 0.02 0.02 75 1012.6
20260507204312 61 0.0 0.0 0.00 0.02 0.02 74 1012.4
20260507203227 61 315 0.0 1.7 0.00 0.02 0.02 73 1012.5
20260507202223 60 0.0 0.0 0.00 0.02 0.02 74 1012.4
20260507201217 60 0.0 0.0 0.00 0.02 0.02 73 1012.0
20260507200213 61 0.0 0.0 0.00 0.02 0.02 73 1012.1
20260507195210 61 0.0 0.0 0.00 0.02 0.02 72 1011.9
20260507194206 61 0.0 0.0 0.00 0.02 0.02 70 1011.9
20260507193157 62 0.0 0.0 0.00 0.02 0.02 68 1011.6
20260507192213 63 0.0 0.0 0.00 0.02 0.02 65 1011.5
20260507191149 64 0.0 0.0 0.00 0.02 0.02 60 1011.3
20260507190147 64 0.0 0.0 0.00 0.02 0.02 60 1011.1
20260507185143 65 0.0 0.0 0.00 0.02 0.02 59 1011.1
20260507184141 65 0.0 0.0 0.00 0.02 0.02 56 1011.0
20260507183135 65 0.0 1.7 0.00 0.02 0.02 54 1011.2
20260507182132 66 0.0 0.0 0.00 0.14 0.02 53 1011.0
20260507181129 67 0.0 0.9 0.00 0.14 0.02 53 1010.8
20260507180126 67 0.0 0.0 0.00 0.14 0.02 51 1010.9
20260507175122 68 315 0.9 1.7 0.00 0.14 0.02 50 1010.8
20260507174119 68 247 0.0 0.9 0.00 0.14 0.02 50 1010.7
20260507173115 68 292 0.0 0.9 0.00 0.14 0.02 50 1010.6
20260507172115 68 292 0.0 2.6 0.00 0.14 0.02 51 1010.5
20260507171110 69 292 0.0 0.9 0.00 0.14 0.02 50 1010.7
20260507165058 69 0.0 0.0 0.00 0.14 0.02 51 1010.5
20260507164114 69 247 1.7 3.5 0.00 0.14 0.02 50 1010.4
20260507163051 70 315 0.9 1.7 0.00 0.14 0.02 50 1010.3
20260507162047 70 292 0.9 1.7 0.00 0.14 0.02 51 1010.3
20260507161043 69 292 2.6 3.5 0.00 0.14 0.02 48 1010.4
20260507160039 69 112 0.9 1.7 0.00 0.14 0.02 48 1010.4
20260507155037 70 315 0.0 1.7 0.00 0.14 0.02 48 1010.5
20260507154032 70 315 0.9 1.7 0.00 0.14 0.02 46 1010.3
20260507153028 69 67 0.0 0.9 0.00 0.14 0.02 47 1010.5
20260507152024 70 315 0.9 1.7 0.00 0.14 0.02 46 1010.6
20260507151021 70 315 0.9 1.7 0.00 0.14 0.02 46 1010.3
20260507150018 70 315 0.9 2.6 0.00 0.15 0.02 46 1010.6
20260507145014 70 292 0.9 1.7 0.00 0.15 0.02 49 1010.5
20260507144011 71 0.0 0.9 0.00 0.21 0.02 47 1010.6
20260507143010 71 0.0 0.9 0.00 0.23 0.02 46 1010.5
20260507142007 70 292 0.0 2.6 0.00 0.23 0.02 47 1010.8
20260507140957 69 0.0 0.0 0.00 0.23 0.02 49 1010.8
20260507135954 71 315 0.0 0.9 0.00 0.23 0.02 49 1010.9
20260507134952 71 292 0.0 1.7 0.00 0.23 0.02 51 1010.9
20260507133946 71 315 2.6 5.2 0.00 0.23 0.02 52 1011.0
20260507133103 71 315 0.0 0.9 0.00 0.23 0.02 53 1010.8
20260507131941 70 292 1.7 2.6 0.00 0.23 0.02 52 1011.0
20260507130938 71 0.0 0.9 0.00 0.23 0.02 52 1011.0
20260507125935 69 315 1.7 3.5 0.00 0.23 0.02 55 1011.4
20260507124932 70 135 2.6 3.5 0.00 0.23 0.02 51 1011.4
20260507123930 69 90 0.9 1.7 0.00 0.23 0.02 54 1011.4
20260507122924 69 292 0.9 1.7 0.00 0.23 0.02 55 1011.6
20260507121920 68 202 1.7 3.5 0.00 0.23 0.02 56 1011.4
20260507120937 68 292 0.9 1.7 0.00 0.23 0.02 56 1011.6
20260507115913 69 315 0.9 1.7 0.00 0.23 0.02 55 1011.3
20260507114909 70 292 0.9 1.7 0.00 0.23 0.02 56 1011.5
20260507113926 69 315 0.0 1.7 0.00 0.23 0.02 55 1011.7
20260507112857 68 292 1.7 2.6 0.00 0.23 0.02 58 1012.0
20260507111853 69 292 0.9 1.7 0.00 0.23 0.02 58 1011.8
20260507110851 69 315 0.9 1.7 0.00 0.23 0.02 59 1011.9
20260507105846 68 292 0.9 1.7 0.00 0.23 0.02 59 1012.0
20260507104904 68 292 0.9 1.7 0.00 0.23 0.02 59 1012.2
20260507103840 69 292 0.0 0.9 0.00 0.23 0.02 60 1012.2
20260507102858 68 292 0.0 1.7 0.00 0.23 0.02 60 1012.2
20260507101833 70 270 0.9 2.6 0.00 0.23 0.02 56 1012.3
20260507100829 68 270 0.0 0.9 0.00 0.23 0.02 60 1012.2
20260507095825 64 112 0.0 2.6 0.00 0.23 0.02 62 1012.3
20260507094820 67 292 0.9 1.7 0.00 0.23 0.02 61 1012.5
20260507093817 65 270 0.0 0.9 0.00 0.23 0.02 64 1012.2
20260507092814 65 292 0.0 0.9 0.00 0.23 0.02 64 1012.4
20260507091811 64 0.0 0.9 0.00 0.23 0.02 66 1012.1
20260507090807 65 270 0.0 1.7 0.00 0.23 0.02 64 1012.4
20260507085805 65 292 0.9 1.7 0.00 0.23 0.02 66 1012.3
20260507084817 63 292 0.9 0.9 0.00 0.28 0.02 65 1012.0
20260507083813 63 315 0.9 2.6 0.00 0.31 0.02 66 1012.1
20260507082810 64 0.0 0.0 0.00 0.34 0.02 63 1012.1
20260507081746 65 292 0.0 0.9 0.00 0.38 0.02 64 1012.3
20260507080803 64 0.0 0.0 0.00 0.47 0.02 66 1012.0
20260507075740 61 292 1.7 1.7 0.00 0.50 0.02 71 1012.1
20260507074757 61 292 1.7 1.7 0.00 0.53 0.02 72 1011.8
20260507073754 59 0.0 0.9 0.00 0.54 0.02 76 1011.7
20260507072729 59 292 0.9 1.7 0.00 0.54 0.02 74 1011.9
20260507071725 60 292 0.0 0.9 0.00 0.54 0.02 77 1011.8
20260507070721 57 0.0 0.0 0.00 0.54 0.02 79 1011.9
20260507065717 56 292 0.0 1.7 0.00 0.54 0.02 82 1011.6
20260507064715 56 292 2.6 2.6 0.00 0.54 0.02 80 1011.5
20260507063710 56 315 1.7 2.6 0.00 0.54 0.02 82 1011.5
20260507062707 55 292 1.7 3.5 0.00 0.54 0.02 84 1011.3
20260507061719 54 315 0.9 1.7 0.00 0.54 0.02 86 1011.3
20260507060738 53 292 1.7 2.6 0.00 0.54 0.02 87 1011.2
20260507055652 54 292 0.0 1.7 0.00 0.54 0.02 87 1011.2
20260507054651 53 315 0.9 1.7 0.00 0.54 0.02 88 1011.1
20260507053645 53 0.0 0.0 0.00 0.54 0.02 88 1010.9
20260507052641 52 315 0.0 0.9 0.00 0.54 0.02 88 1010.8
20260507051637 52 0.0 0.0 0.00 0.54 0.02 88 1010.8
20260507050632 52 0.0 0.0 0.00 0.54 0.02 87 1010.6
20260507045629 52 0.0 0.0 0.00 0.54 0.02 87 1010.7
20260507044627 52 315 0.0 0.9 0.00 0.54 0.02 86 1010.3
20260507043623 52 0.0 0.9 0.00 0.54 0.02 86 1010.2
20260507042700 52 315 1.7 2.6 0.00 0.54 0.02 86 1010.3
20260507041616 52 292 0.9 1.7 0.01 0.55 0.02 86 1010.2
20260507040612 52 315 2.6 3.5 0.01 0.56 0.02 87 1010.1
20260507035629 51 292 4.3 7.0 0.01 0.56 0.02 89 1010.2
20260507034605 52 315 0.9 2.6 0.01 0.56 0.02 89 1010.2
20260507033617 51 315 2.6 3.5 0.01 0.56 0.02 88 1010.1
20260507032613 51 292 2.6 5.2 0.01 0.56 0.02 89 1010.1
20260507031548 51 292 4.3 7.0 0.00 0.56 0.01 90 1010.2
20260507030547 51 292 3.5 5.2 0.00 0.56 0.01 90 1010.2
20260507025542 51 315 3.5 5.2 0.00 0.56 0.01 91 1010.1
20260507024539 51 315 0.9 1.7 0.00 0.56 0.01 92 1010.3
20260507023532 51 315 0.0 1.7 0.00 0.56 0.01 92 1010.2
20260507022530 51 292 0.9 1.7 0.00 0.57 0.01 91 1010.1
20260507021525 51 315 0.9 1.7 0.00 0.57 0.01 90 1010.2
20260507020525 51 315 1.7 2.6 0.00 0.57 0.01 90 1010.4
20260507015519 51 292 0.0 0.9 0.00 0.57 0.01 90 1010.0
20260507014535 52 0.0 0.0 0.01 0.57 0.01 89 1010.1
20260507013512 52 0.0 0.9 0.01 0.57 0.01 88 1010.1